SCP
-0 -0 -0 -0 -0 -0 -0 -0 -0 -0 0 -0 -0 -0 -0 0 -0 0 0 0 0 0 0 0 0 0 0 0 0 0 0 0 0 0 0 0 0 0 0 0 0 0 0 0 0
0 0 0 0 0 0 0 0 0 0 0 0 0 0 0 0 0 0 0 0 0 0 0 0 0 0 0 0 0 0 0 0 0 0 0 0 0 0 0 0 0 0 0 0 -0
0 0 0 0 0 0 0 0 0 0 0 0 0 0 0 0 0 0 0 0 0 0 0 0 0 0 0 0 0 0 0 0 0 0 0 0 0 0 0 0 0 0 0 0 -0
0 0 0 0 0 0 0 0 0 0 0 0 0 0 0 0 0 0 0 0 0 0 0 0 0 0 0 0 0 0 0 0 0 0 0 0 0 0 0 -0 0 0 0 -0 -0
0 0 0 0 0 0 0 0 0 0 0 0 0 0 0 0 0 0 0 0 0 0 0 0 0 0 0 0 0 0 0 0 0 0 0 0 0 0 0 0 0 0 0 0 0
0 0 0 0 0 0 0 0 0 0 0 0 0 0 0 0 0 0 0 0 0 0 0 0 0 0 0 0 0 0 0 0 0 0 0 0 0 0 0 0 0 0 0 0 0
0 0 0 0 0 0 0 0 0 0 0 0 0 0 0 0 0 0 0 0 0 0 0 0 0 0 0 0 0 0 0 0 0 0 0 0 0 0 0 0 0 0 0 0 0
0 0 0 0 0 0 0 0 0 0 0 0 0 0 0 0 0 0 0 0 0 0 0 0 0 0 0 0 0 0 0 0 0 0 0 0 0 0 0 0 0 0 0 0 0
0 0 0 0 0 0 0 0 0 0 0 0 0 0 0 0 0 0 0 0 0 0 0 0 0 0 0 0 0 0 0 0 0 0 0 0 0 0 0 0 0 0 0 0 0
0 0 0 0 0 0 0 0 0 0 0 0 0 0 0 0 0 0 0 0 0 0 0 0 0 0 0 0 0 0 0 0 0 0 0 0 0 0 0 0 0 0 0 0 0
0 0 0 0 0 0 0 0 0 0 0 0 0 0 0 0 0 0 0 0 0 0 0 0 0 0 0 0 0 0 0 0 0 0 0 0 0 0 0 0 0 0 0 0 0
0 0 0 0 0 0 0 0 0 0 0 0 0 0 0 0 0 0 0 0 0 0 0 0 0 0 0 0 0 0 0 0 0 0 0 0 0 0 0 0 0 0 0 0 0
0 0 0 0 0 0 0 0 0 0 0 0 0 0 0 0 0 0 0 0 0 0 0 0 0 0 0 0 0 0 0 0 0 0 0 0 0 0 0 0 0 0 0 0 0
0 0 0 0 0 0 0 0 0 0 0 0 0 0 0 0 0 0 0 0 0 0 0 0 0 0 0 0 0 0 0 0 0 0 0 0 -0 0 0 0 0 0 0 0 0
0 0 0 0 0 0 0 0 0 0 0 0 0 0 0 0 0 0 0 0 0 0 0 0 0 0 0 0 0 0 0 0 0 0 0 0 0 0 0 0 0 0 0 0 0
0 0 0 0 0 0 0 0 0 0 0 0 0 0 0 0 0 0 0 0 0 0 0 0 0 0 0 0 0 0 0 0 0 0 0 0 0 0 0 0 0 0 0 0 0
0 0 0 0 0 0 0 0 0 0 0 0 0 0 0 0 0 0 0 0 0 0 0 0 0 0 0 0 0 0 0 0 0 0 0 0 0 0 0 0 0 0 0 0 0
0 0 0 0 0 0 0 0 0 0 0 0 0 0 0 0 0 0 0 0 0 0 0 0 0 0 0 0 0 0 0 0 0 0 -0 0 0 0 0 0 0 0 0 0 0
0 0 0 0 0 0 0 0 0 0 0 0 0 0 0 0 0 0 0 0 0 0 0 0 0 0 0 0 0 0 0 0 0 0 0 0 0 0 0 0 0 0 0 -0 0
0 0 0 0 0 0 0 0 0 0 0 0 0 0 0 0 0 0 0 0 0 0 0 0 0 0 0 0 0 0 0 0 0 0 0 0 0 0 0 0 0 0 0 0 0
0 0 0 0 0 0 0 0 0 0 0 0 0 0 0 0 0 0 0 0 0 0 0 0 0 0 0 0 0 0 0 0 0 0 0 0 0 0 0 0 0 0 0 0 0
0 0 0 0 0 0 0 0 0 0 0 0 0 0 0 0 0 0 0 0 0 0 0 0 0 0 0 0 0 0 0 0 0 0 0 0 0 0 0 0 0 0 0 0 0
0 0 0 0 0 0 0 0 0 0 0 0 0 0 0 0 0 0 0 0 0 0 0 0 0 0 0 0 0 0 0 0 0 0 0 0 0 0 0 0 0 0 0 0 0
0 0 0 0 0 0 0 0 0 0 0 0 0 0 0 0 0 0 0 0 0 0 0 0 0 0 0 0 0 0 0 0 0 0 0 0 0 0 0 0 0 0 0 0 0
0 0 0 0 0 0 0 0 0 0 0 0 0 0 0 0 0 0 0 0 0 0 0 0 0 0 0 0 0 0 0 0 0 0 0 0 0 0 0 0 0 0 0 0 0
0 0 0 0 0 0 0 0 0 0 0 0 0 0 0 0 0 0 0 0 0 0 0 0 0 0 0 0 0 0 0 0 0 0 0 0 0 0 0 0 0 0 0 0 0
0 0 0 0 0 0 0 0 0 0 0 0 0 0 0 0 0 0 0 0 0 0 0 0 0 0 0 0 0 0 0 0 0 0 0 0 0 0 0 0 0 0 0 0 0
Wind_Speed_500mb
12 14 16 19 20 21 22 24 24 24 23 18 11 3 2 4 8 9 7 8 6 3 2 4 1 12 11 4 4 5 6 8 6 10 5 13 17 11 13 10 17 21 19 19 18
12 14 16 18 21 23 23 23 24 23 22 18 13 8 13 13 15 19 14 12 8 3 1 4 6 20 8 6 2 7 6 7 4 7 4 10 20 13 12 17 20 28 41 35 29
17 18 18 19 21 23 25 25 25 24 23 20 16 14 12 17 20 19 28 19 11 5 1 5 7 16 8 8 7 5 6 4 8 14 9 8 12 15 16 22 34 36 34 45 42
21 21 23 24 24 26 27 28 28 27 26 25 22 16 14 13 10 9 27 24 16 10 5 3 6 7 8 9 7 7 9 8 4 11 7 9 7 12 36 47 28 28 34 38 52
27 27 27 27 28 28 28 30 31 30 30 28 24 20 15 15 28 24 25 28 22 16 12 8 5 8 7 9 9 10 10 12 13 13 16 16 25 21 35 44 44 46 43 45 50
32 32 32 32 33 33 31 32 34 32 32 31 27 20 18 17 22 23 26 31 28 22 18 12 8 7 4 6 10 8 8 14 14 19 16 14 12 5 22 22 39 52 57 54 56
37 37 37 36 37 37 36 35 38 37 36 33 29 24 27 33 28 24 25 29 28 24 20 15 8 6 5 3 3 2 11 11 25 14 10 12 21 25 43 32 34 42 46 51 59
42 42 41 42 41 42 40 39 39 38 38 36 28 22 19 27 27 29 29 28 27 21 19 14 9 5 3 5 1 7 6 10 11 19 7 14 22 27 19 25 39 42 43 51 59
46 45 43 42 44 46 44 42 42 39 36 31 23 16 15 21 25 28 27 23 23 19 15 12 8 6 7 7 11 8 23 19 9 24 9 22 31 13 16 23 40 47 46 51 56
46 47 45 42 42 45 45 43 43 38 29 19 23 10 27 17 18 19 26 26 19 17 9 10 6 8 7 14 26 30 19 19 23 10 17 22 45 45 47 34 59 70 61 58 59
42 45 44 40 40 40 42 34 17 11 12 17 8 13 13 20 17 19 26 26 22 14 14 4 13 33 33 34 33 22 21 37 35 8 10 30 42 46 56 52 66 74 69 63 62
44 44 42 36 36 34 33 18 18 16 22 29 42 50 51 37 17 28 29 23 18 21 14 8 33 40 12 17 21 22 29 45 31 6 15 29 41 44 49 61 69 69 72 56 49
39 42 41 33 33 30 24 20 14 13 12 19 38 34 38 38 24 29 37 20 12 17 26 33 22 6 16 19 20 25 37 37 25 8 15 19 31 20 18 31 44 63 64 49 48
39 38 37 25 24 23 14 8 3 9 11 11 10 11 14 14 10 20 41 15 9 19 17 21 10 18 19 23 26 29 15 26 22 11 25 4 34 26 30 29 22 62 60 37 47
41 37 29 20 13 13 9 5 3 4 17 3 6 8 14 11 8 6 30 17 14 14 12 10 8 13 20 17 24 10 2 5 4 16 14 26 20 18 4 13 32 34 61 42 38
37 33 33 16 23 25 17 7 4 8 20 6 8 9 8 7 4 7 7 5 4 7 9 15 3 8 5 5 1 11 3 5 5 9 20 40 36 7 10 14 17 37 47 36 30
39 35 37 22 18 27 23 16 8 17 7 11 11 10 5 12 12 16 15 17 14 10 19 8 16 5 7 8 6 9 4 12 15 13 31 4 15 29 31 27 31 39 45 19 23
47 49 46 39 18 26 33 9 28 12 23 6 5 7 16 22 13 18 13 15 22 8 3 10 23 24 18 20 8 19 13 13 28 29 52 12 20 20 16 38 63 36 45 38 29
52 62 66 55 27 37 28 20 22 21 16 17 6 9 15 8 8 14 24 15 21 39 25 17 20 5 3 3 1 15 14 7 14 1 20 27 39 14 18 27 16 38 40 51 51
66 74 83 66 45 49 14 47 21 19 13 9 36 29 27 27 19 21 24 12 12 32 27 9 29 7 7 6 4 9 8 7 6 17 39 47 57 36 28 31 26 24 34 46 44
66 28 52 65 57 43 23 27 24 39 25 21 29 26 26 24 26 19 24 7 15 13 27 8 18 10 10 22 28 11 10 8 5 7 20 41 21 10 7 9 19 25 36 37 37
47 8 28 57 27 16 24 18 20 17 33 27 10 28 41 31 29 24 30 26 34 24 24 16 6 20 36 5 3 2 19 27 19 20 21 22 63 15 16 11 12 8 19 28 35
25 27 35 86 16 18 21 24 24 23 23 25 30 24 28 36 20 31 39 20 29 23 22 18 5 13 32 9 1 16 16 24 32 31 63 21 61 26 24 25 25 30 43 47 70
26 7 17 54 41 34 42 36 31 39 45 29 13 25 7 19 28 23 43 17 39 37 30 31 16 29 42 32 2 14 24 35 44 35 38 52 75 83 59 60 62 72 67 66 71
25 18 29 10 32 35 31 19 42 28 31 34 15 40 43 30 34 46 49 37 18 17 12 26 29 38 55 69 46 50 49 54 56 57 47 72 51 72 70 60 61 77 70 96 88
21 10 18 19 61 49 46 37 55 55 32 27 40 43 49 50 48 48 52 46 37 5 12 8 36 48 65 65 54 51 55 64 66 72 56 57 63 71 79 106 82 108 88 87 87
32 41 31 15 22 33 46 60 60 55 57 71 52 43 41 58 91 96 72 31 15 23 29 26 18 22 46 51 41 24 70 60 78 68 63 60 72 65 71 68 64 88 73 76 87
Wind_Direction_500mb
354 356 357 357 359 2 3 5 8 11 16 11 11 301 255 250 223 220 211 199 183 148 32 179 212 169 166 173 178 163 229 238 230 193 155 167 200 193 210 202 207 214 229 232 213
341 343 347 347 347 348 349 349 350 353 356 359 347 315 260 269 269 254 239 218 211 184 96 194 177 162 164 152 171 229 250 233 199 213 232 198 217 201 200 206 230 236 237 235 225
326 332 337 341 340 341 340 341 340 339 338 339 336 317 284 266 286 246 221 220 225 238 311 215 187 171 163 167 175 181 257 200 237 232 232 231 222 205 229 232 233 228 230 234 226
311 318 323 327 331 333 334 334 333 331 330 328 325 314 290 260 251 240 209 219 230 245 285 293 199 189 170 189 185 211 227 220 246 216 202 229 193 224 226 245 251 239 243 239 226
304 310 314 318 322 322 324 324 324 324 323 319 315 305 286 253 252 256 228 224 230 239 248 256 237 190 226 182 180 221 193 218 246 232 230 248 243 253 249 252 254 257 251 240 233
296 301 306 309 313 315 317 317 315 315 314 313 307 294 268 246 263 250 239 234 235 236 245 254 250 244 185 210 225 187 240 250 249 242 237 234 251 227 256 238 238 248 249 242 238
290 294 297 301 305 307 311 314 312 313 309 306 300 286 266 264 266 249 242 238 238 239 238 241 243 218 185 224 232 277 289 260 225 216 238 210 268 233 257 248 246 246 244 240 239
282 286 290 296 299 301 306 310 308 309 306 301 293 276 256 261 254 246 241 235 235 236 236 235 238 229 181 160 311 254 248 250 151 172 193 185 277 241 240 237 250 248 240 239 239
275 278 282 288 293 298 303 306 307 305 298 290 277 249 259 257 244 238 229 223 226 226 222 219 221 195 161 232 264 225 273 240 270 207 153 208 283 237 238 248 264 257 248 243 244
278 276 278 283 289 293 300 305 307 300 281 269 244 244 241 239 234 228 217 212 208 207 202 206 191 228 198 207 264 282 259 252 259 185 217 222 257 272 270 258 263 269 261 251 243
282 281 279 281 285 292 298 315 312 298 256 231 221 236 258 240 232 221 209 197 193 185 205 152 227 238 247 234 266 277 264 268 267 201 240 255 261 275 283 275 264 271 264 255 247
292 287 282 281 281 288 297 303 287 276 299 261 255 252 254 250 242 223 203 185 183 213 151 183 240 254 270 250 231 242 258 264 279 219 214 273 271 277 271 269 268 268 267 260 253
297 292 290 284 280 286 284 288 282 291 250 269 244 242 251 239 235 233 196 204 199 201 205 232 248 88 190 214 208 233 239 259 257 305 228 286 271 244 261 259 274 268 264 257 243
308 299 294 286 279 269 267 242 257 321 260 242 220 225 213 184 241 209 193 194 199 240 196 244 274 234 223 240 201 246 240 250 266 284 275 8 290 277 273 255 258 272 272 248 251
303 307 296 288 227 220 223 214 316 339 277 58 181 195 170 182 129 192 192 203 210 181 180 221 188 199 219 240 180 248 99 195 220 253 302 255 267 271 173 255 260 260 270 253 242
287 296 302 296 237 225 211 206 133 236 243 231 164 176 155 196 176 129 167 174 130 181 235 255 199 226 217 96 184 134 164 197 181 252 256 260 235 243 197 212 244 256 262 248 225
275 276 285 286 249 215 196 150 230 232 19 193 198 180 209 186 196 184 169 180 192 183 220 197 224 171 179 167 141 188 208 290 263 242 267 123 261 265 281 244 239 252 263 249 233
265 263 269 273 254 202 172 161 234 190 210 76 128 140 200 166 216 183 169 211 230 215 181 229 259 184 182 224 221 185 211 222 276 287 289 98 251 273 240 253 252 267 259 263 247
252 246 246 251 244 197 173 217 229 204 186 181 110 207 217 232 224 179 210 216 208 189 204 195 252 126 147 93 252 153 200 343 290 144 285 254 257 234 197 240 243 253 257 258 254
252 235 238 240 222 194 196 236 224 200 156 176 224 199 228 219 196 195 192 188 229 202 210 211 277 150 112 143 86 211 124 134 214 277 274 278 294 283 242 237 237 248 246 255 255
261 221 243 238 199 182 215 229 240 229 195 192 231 246 239 236 215 217 238 212 205 192 200 173 213 218 147 201 188 164 196 204 293 241 271 287 276 157 173 165 213 232 237 254 272
239 232 200 186 186 193 224 197 238 237 225 249 250 251 246 232 238 248 246 227 190 152 168 207 182 250 241 144 198 249 228 207 226 232 234 266 271 171 167 194 245 232 264 278 283
237 240 208 189 207 213 230 241 238 235 220 211 229 224 230 245 250 249 257 229 192 171 183 169 187 254 264 213 235 218 204 232 240 255 250 226 264 230 271 260 258 260 275 279 283
237 215 176 209 230 211 219 232 232 230 240 235 225 215 215 241 218 243 242 230 202 207 200 169 188 225 244 252 355 203 226 231 223 235 251 238 256 275 273 277 282 279 280 273 263
242 208 196 192 222 234 232 216 231 235 209 217 238 229 225 241 252 250 259 248 214 216 179 165 235 243 252 256 256 266 262 252 237 235 242 256 259 267 276 276 277 283 286 279 277
263 241 205 203 213 216 228 221 229 238 213 214 221 220 221 229 216 244 235 239 228 177 216 202 237 224 240 248 255 255 254 251 257 257 254 255 264 264 269 275 279 274 273 274 277
265 273 276 202 216 218 215 222 230 237 238 233 222 227 223 227 230 234 254 271 211 229 229 229 229 238 246 246 251 238 238 246 256 261 257 261 254 264 267 263 264 271 280 276 269
Wind_Speed_850mb
12 14 16 19 20 21 22 24 24 24 23 18 11 3 2 4 8 9 7 8 6 3 2 4 1 12 11 4 4 5 6 8 6 10 5 13 17 11 13 10 17 21 19 19 18
12 14 16 18 21 23 23 23 24 23 22 18 13 8 13 13 15 19 14 12 8 3 1 4 6 20 8 6 2 7 6 7 4 7 4 10 20 13 12 17 20 28 41 35 29
17 18 18 19 21 23 25 25 25 24 23 20 16 14 12 17 20 19 28 19 11 5 1 5 7 16 8 8 7 5 6 4 8 14 9 8 12 15 16 22 34 36 34 45 42
21 21 23 24 24 26 27 28 28 27 26 25 22 16 14 13 10 9 27 24 16 10 5 3 6 7 8 9 7 7 9 8 4 11 7 9 7 12 36 47 28 28 34 38 52
27 27 27 27 28 28 28 30 31 30 30 28 24 20 15 15 28 24 25 28 22 16 12 8 5 8 7 9 9 10 10 12 13 13 16 16 25 21 35 44 44 46 43 45 50
32 32 32 32 33 33 31 32 34 32 32 31 27 20 18 17 22 23 26 31 28 22 18 12 8 7 4 6 10 8 8 14 14 19 16 14 12 5 22 22 39 52 57 54 56
37 37 37 36 37 37 36 35 38 37 36 33 29 24 27 33 28 24 25 29 28 24 20 15 8 6 5 3 3 2 11 11 25 14 10 12 21 25 43 32 34 42 46 51 59
42 42 41 42 41 42 40 39 39 38 38 36 28 22 19 27 27 29 29 28 27 21 19 14 9 5 3 5 1 7 6 10 11 19 7 14 22 27 19 25 39 42 43 51 59
46 45 43 42 44 46 44 42 42 39 36 31 23 16 15 21 25 28 27 23 23 19 15 12 8 6 7 7 11 8 23 19 9 24 9 22 31 13 16 23 40 47 46 51 56
46 47 45 42 42 45 45 43 43 38 29 19 23 10 27 17 18 19 26 26 19 17 9 10 6 8 7 14 26 30 19 19 23 10 17 22 45 45 47 34 59 70 61 58 59
42 45 44 40 40 40 42 34 17 11 12 17 8 13 13 20 17 19 26 26 22 14 14 4 13 33 33 34 33 22 21 37 35 8 10 30 42 46 56 52 66 74 69 63 62
44 44 42 36 36 34 33 18 18 16 22 29 42 50 51 37 17 28 29 23 18 21 14 8 33 40 12 17 21 22 29 45 31 6 15 29 41 44 49 61 69 69 72 56 49
39 42 41 33 33 30 24 20 14 13 12 19 38 34 38 38 24 29 37 20 12 17 26 33 22 6 16 19 20 25 37 37 25 8 15 19 31 20 18 31 44 63 64 49 48
39 38 37 25 24 23 14 8 3 9 11 11 10 11 14 14 10 20 41 15 9 19 17 21 10 18 19 23 26 29 15 26 22 11 25 4 34 26 30 29 22 62 60 37 47
41 37 29 20 13 13 9 5 3 4 17 3 6 8 14 11 8 6 30 17 14 14 12 10 8 13 20 17 24 10 2 5 4 16 14 26 20 18 4 13 32 34 61 42 38
37 33 33 16 23 25 17 7 4 8 20 6 8 9 8 7 4 7 7 5 4 7 9 15 3 8 5 5 1 11 3 5 5 9 20 40 36 7 10 14 17 37 47 36 30
39 35 37 22 18 27 23 16 8 17 7 11 11 10 5 12 12 16 15 17 14 10 19 8 16 5 7 8 6 9 4 12 15 13 31 4 15 29 31 27 31 39 45 19 23
47 49 46 39 18 26 33 9 28 12 23 6 5 7 16 22 13 18 13 15 22 8 3 10 23 24 18 20 8 19 13 13 28 29 52 12 20 20 16 38 63 36 45 38 29
52 62 66 55 27 37 28 20 22 21 16 17 6 9 15 8 8 14 24 15 21 39 25 17 20 5 3 3 1 15 14 7 14 1 20 27 39 14 18 27 16 38 40 51 51
66 74 83 66 45 49 14 47 21 19 13 9 36 29 27 27 19 21 24 12 12 32 27 9 29 7 7 6 4 9 8 7 6 17 39 47 57 36 28 31 26 24 34 46 44
66 28 52 65 57 43 23 27 24 39 25 21 29 26 26 24 26 19 24 7 15 13 27 8 18 10 10 22 28 11 10 8 5 7 20 41 21 10 7 9 19 25 36 37 37
47 8 28 57 27 16 24 18 20 17 33 27 10 28 41 31 29 24 30 26 34 24 24 16 6 20 36 5 3 2 19 27 19 20 21 22 63 15 16 11 12 8 19 28 35
25 27 35 86 16 18 21 24 24 23 23 25 30 24 28 36 20 31 39 20 29 23 22 18 5 13 32 9 1 16 16 24 32 31 63 21 61 26 24 25 25 30 43 47 70
26 7 17 54 41 34 42 36 31 39 45 29 13 25 7 19 28 23 43 17 39 37 30 31 16 29 42 32 2 14 24 35 44 35 38 52 75 83 59 60 62 72 67 66 71
25 18 29 10 32 35 31 19 42 28 31 34 15 40 43 30 34 46 49 37 18 17 12 26 29 38 55 69 46 50 49 54 56 57 47 72 51 72 70 60 61 77 70 96 88
21 10 18 19 61 49 46 37 55 55 32 27 40 43 49 50 48 48 52 46 37 5 12 8 36 48 65 65 54 51 55 64 66 72 56 57 63 71 79 106 82 108 88 87 87
32 41 31 15 22 33 46 60 60 55 57 71 52 43 41 58 91 96 72 31 15 23 29 26 18 22 46 51 41 24 70 60 78 68 63 60 72 65 71 68 64 88 73 76 87
Wind_Direction_850mb
354 356 357 357 359 2 3 5 8 11 16 11 11 301 255 250 223 220 211 199 183 148 32 179 212 169 166 173 178 163 229 238 230 193 155 167 200 193 210 202 207 214 229 232 213
341 343 347 347 347 348 349 349 350 353 356 359 347 315 260 269 269 254 239 218 211 184 96 194 177 162 164 152 171 229 250 233 199 213 232 198 217 201 200 206 230 236 237 235 225
326 332 337 341 340 341 340 341 340 339 338 339 336 317 284 266 286 246 221 220 225 238 311 215 187 171 163 167 175 181 257 200 237 232 232 231 222 205 229 232 233 228 230 234 226
311 318 323 327 331 333 334 334 333 331 330 328 325 314 290 260 251 240 209 219 230 245 285 293 199 189 170 189 185 211 227 220 246 216 202 229 193 224 226 245 251 239 243 239 226
304 310 314 318 322 322 324 324 324 324 323 319 315 305 286 253 252 256 228 224 230 239 248 256 237 190 226 182 180 221 193 218 246 232 230 248 243 253 249 252 254 257 251 240 233
296 301 306 309 313 315 317 317 315 315 314 313 307 294 268 246 263 250 239 234 235 236 245 254 250 244 185 210 225 187 240 250 249 242 237 234 251 227 256 238 238 248 249 242 238
290 294 297 301 305 307 311 314 312 313 309 306 300 286 266 264 266 249 242 238 238 239 238 241 243 218 185 224 232 277 289 260 225 216 238 210 268 233 257 248 246 246 244 240 239
282 286 290 296 299 301 306 310 308 309 306 301 293 276 256 261 254 246 241 235 235 236 236 235 238 229 181 160 311 254 248 250 151 172 193 185 277 241 240 237 250 248 240 239 239
275 278 282 288 293 298 303 306 307 305 298 290 277 249 259 257 244 238 229 223 226 226 222 219 221 195 161 232 264 225 273 240 270 207 153 208 283 237 238 248 264 257 248 243 244
278 276 278 283 289 293 300 305 307 300 281 269 244 244 241 239 234 228 217 212 208 207 202 206 191 228 198 207 264 282 259 252 259 185 217 222 257 272 270 258 263 269 261 251 243
282 281 279 281 285 292 298 315 312 298 256 231 221 236 258 240 232 221 209 197 193 185 205 152 227 238 247 234 266 277 264 268 267 201 240 255 261 275 283 275 264 271 264 255 247
292 287 282 281 281 288 297 303 287 276 299 261 255 252 254 250 242 223 203 185 183 213 151 183 240 254 270 250 231 242 258 264 279 219 214 273 271 277 271 269 268 268 267 260 253
297 292 290 284 280 286 284 288 282 291 250 269 244 242 251 239 235 233 196 204 199 201 205 232 248 88 190 214 208 233 239 259 257 305 228 286 271 244 261 259 274 268 264 257 243
308 299 294 286 279 269 267 242 257 321 260 242 220 225 213 184 241 209 193 194 199 240 196 244 274 234 223 240 201 246 240 250 266 284 275 8 290 277 273 255 258 272 272 248 251
303 307 296 288 227 220 223 214 316 339 277 58 181 195 170 182 129 192 192 203 210 181 180 221 188 199 219 240 180 248 99 195 220 253 302 255 267 271 173 255 260 260 270 253 242
287 296 302 296 237 225 211 206 133 236 243 231 164 176 155 196 176 129 167 174 130 181 235 255 199 226 217 96 184 134 164 197 181 252 256 260 235 243 197 212 244 256 262 248 225
275 276 285 286 249 215 196 150 230 232 19 193 198 180 209 186 196 184 169 180 192 183 220 197 224 171 179 167 141 188 208 290 263 242 267 123 261 265 281 244 239 252 263 249 233
265 263 269 273 254 202 172 161 234 190 210 76 128 140 200 166 216 183 169 211 230 215 181 229 259 184 182 224 221 185 211 222 276 287 289 98 251 273 240 253 252 267 259 263 247
252 246 246 251 244 197 173 217 229 204 186 181 110 207 217 232 224 179 210 216 208 189 204 195 252 126 147 93 252 153 200 343 290 144 285 254 257 234 197 240 243 253 257 258 254
252 235 238 240 222 194 196 236 224 200 156 176 224 199 228 219 196 195 192 188 229 202 210 211 277 150 112 143 86 211 124 134 214 277 274 278 294 283 242 237 237 248 246 255 255
261 221 243 238 199 182 215 229 240 229 195 192 231 246 239 236 215 217 238 212 205 192 200 173 213 218 147 201 188 164 196 204 293 241 271 287 276 157 173 165 213 232 237 254 272
239 232 200 186 186 193 224 197 238 237 225 249 250 251 246 232 238 248 246 227 190 152 168 207 182 250 241 144 198 249 228 207 226 232 234 266 271 171 167 194 245 232 264 278 283
237 240 208 189 207 213 230 241 238 235 220 211 229 224 230 245 250 249 257 229 192 171 183 169 187 254 264 213 235 218 204 232 240 255 250 226 264 230 271 260 258 260 275 279 283
237 215 176 209 230 211 219 232 232 230 240 235 225 215 215 241 218 243 242 230 202 207 200 169 188 225 244 252 355 203 226 231 223 235 251 238 256 275 273 277 282 279 280 273 263
242 208 196 192 222 234 232 216 231 235 209 217 238 229 225 241 252 250 259 248 214 216 179 165 235 243 252 256 256 266 262 252 237 235 242 256 259 267 276 276 277 283 286 279 277
263 241 205 203 213 216 228 221 229 238 213 214 221 220 221 229 216 244 235 239 228 177 216 202 237 224 240 248 255 255 254 251 257 257 254 255 264 264 269 275 279 274 273 274 277
265 273 276 202 216 218 215 222 230 237 238 233 222 227 223 227 230 234 254 271 211 229 229 229 229 238 246 246 251 238 238 246 256 261 257 261 254 264 267 263 264 271 280 276 269